Plato, MN

2:06 PM CST on February 08, 2016 (GMT -0600)
Glencoe Municipal

Weather History for KGYL - January, 2014

Change the Weather History Date:

Sunday, January 26, 2014

  Actual Average (KHCD) Record (KHCD)
Temperature  
Mean Temperature 6 °F -  
Max Temperature 18 °F 19 °F 48 °F (2002)
Min Temperature -7 °F 0 °F -23 °F (1982)
Degree Days  
Heating Degree Days 59    
Moisture  
Dew Point 1 °F    
Average Humidity 72    
Maximum Humidity 83    
Minimum Humidity 59    
Precipitation  
Precipitation 0.03 in - - ()
Sea Level Pressure  
Sea Level Pressure 29.61 in    
Wind  
Wind Speed 15 mph (NW)    
Max Wind Speed 37 mph    
Max Gust Speed 45 mph    
Visibility 5 miles    
Events Snow    
Averages and records for this station are not official NWS values.
T = Trace of Precipitation, MM = Missing Value Source: NWS Daily Summary

Daily Weather History Graph

Daily Weather History Graph

Search for Another Location

Airport or City:

Trip Planner

Search our weather history database for the weather conditions in past years. The results will help you decide how hot, cold, wet, or windy it might be!

Date:

Astronomy

Jan. 26, 2014 Rise Set
Actual Time 7:41 AM CST 5:16 PM CST
Civil Twilight 7:10 AM CST 5:48 PM CST
Nautical Twilight 6:34 AM CST 6:23 PM CST
Astronomical Twilight 6:00 AM CST 6:58 PM CST
Moon 3:20 AM CST (1/26) 1:05 PM CST (1/26)
Length of Visible Light 10h 37m
Length of Day
9h 34m
Waning Crescent, 23% of the Moon is Illuminated
Jan 26
Waning Crescent
Jan 30
New
Feb 6
First Quarter
Feb 14
Full
Feb 22
Last Quarter

Hourly Weather History & Observations

Time (CST) Temp. Windchill Dew Point Humidity Pressure Visibility Wind Dir Wind Speed Gust Speed Precip Events Conditions
12:13 AM 10.4 °F -4.1 °F 5.7 °F 81% 29.45 in 7.0 mi East 11.5 mph - N/A   Overcast
12:33 AM 10.8 °F -2.8 °F 5.9 °F 81% 29.44 in 3.0 mi East 10.4 mph - 0.01 in Snow Light Snow
12:53 AM 10.9 °F -4.1 °F 6.6 °F 83% 29.41 in 1.8 mi East 12.7 mph - 0.03 in Snow Light Snow
1:12 AM 11.1 °F -4.5 °F 6.8 °F 83% 29.39 in 1.2 mi East 13.8 mph - N/A Snow Light Snow
1:33 AM 11.3 °F -2.2 °F 7.0 °F 83% 29.38 in 1.5 mi ESE 10.4 mph - N/A Snow Light Snow
1:53 AM 11.3 °F -1.3 °F 7.2 °F 83% 29.38 in 1.5 mi East 9.2 mph - N/A Snow Light Snow
2:12 AM 11.7 °F 0.0 °F 7.5 °F 83% 29.37 in 2.5 mi East 8.1 mph - N/A Snow Light Snow
2:33 AM 12.0 °F 0.5 °F 7.7 °F 83% 29.37 in 3.0 mi East 8.1 mph - N/A Snow Light Snow
2:53 AM 11.8 °F 5.7 °F 7.7 °F 83% 29.39 in 2.5 mi ENE 3.5 mph - N/A Snow Light Snow
3:13 AM 12.0 °F 1.5 °F 7.7 °F 83% 29.36 in 7.0 mi East 6.9 mph - N/A Snow Light Snow
3:33 AM 12.0 °F 5.9 °F 7.9 °F 83% 29.37 in 7.0 mi ENE 3.5 mph - N/A Snow Light Snow
3:53 AM 12.0 °F 5.9 °F 7.7 °F 83% 29.38 in 10.0 mi North 3.5 mph - N/A Snow Light Snow
4:12 AM 12.0 °F 5.9 °F 7.7 °F 83% 29.38 in 10.0 mi NNE 3.5 mph - N/A Snow Light Snow
4:33 AM 11.5 °F 5.3 °F 7.2 °F 83% 29.36 in 10.0 mi NE 3.5 mph - N/A   Overcast
4:53 AM 10.9 °F 2.9 °F 6.4 °F 82% 29.37 in 10.0 mi North 4.6 mph - N/A   Overcast
5:12 AM 10.9 °F 1.4 °F 6.6 °F 83% 29.38 in 10.0 mi NNW 5.8 mph - N/A   Overcast
5:33 AM 10.8 °F 2.7 °F 6.3 °F 82% 29.38 in 10.0 mi NNW 4.6 mph - N/A Snow Light Snow
5:53 AM 10.4 °F 0.8 °F 5.9 °F 82% 29.38 in 10.0 mi NNW 5.8 mph - N/A Snow Light Snow
6:13 AM 10.4 °F -0.4 °F 5.9 °F 82% 29.41 in 10.0 mi WNW 6.9 mph - N/A Snow Light Snow
6:33 AM 10.8 °F 1.2 °F 5.9 °F 81% 29.42 in 7.0 mi West 5.8 mph - N/A Snow Light Snow
6:53 AM 11.1 °F 0.4 °F 6.6 °F 82% 29.42 in 10.0 mi West 6.9 mph - N/A   Overcast
7:12 AM 12.2 °F -2.5 °F 7.7 °F 82% 29.42 in 10.0 mi West 12.7 mph - N/A   Overcast
7:33 AM 12.6 °F -2.7 °F 7.7 °F 81% 29.42 in 10.0 mi WNW 13.8 mph - N/A   Mostly Cloudy
7:53 AM 13.1 °F 0.1 °F 8.4 °F 82% 29.43 in 10.0 mi West 10.4 mph - N/A   Mostly Cloudy
8:13 AM 13.8 °F 2.7 °F 8.6 °F 80% 29.41 in 10.0 mi WNW 8.1 mph - N/A   Overcast
8:33 AM 14.9 °F 4.0 °F 9.5 °F 79% 29.41 in 10.0 mi West 8.1 mph - N/A   Overcast
8:52 AM 16.9 °F 2.8 °F 10.8 °F 77% 29.41 in 10.0 mi West 13.8 mph - N/A   Overcast
9:13 AM 17.1 °F 1.5 °F 10.6 °F 76% 29.40 in 7.0 mi WNW 17.3 mph 24.2 mph N/A   Overcast
9:33 AM 17.6 °F 3.2 °F 10.9 °F 75% 29.42 in 7.0 mi WNW 15.0 mph 25.3 mph N/A Snow Light Snow
9:53 AM 18.0 °F 3.1 °F 10.8 °F 73% 29.42 in 10.0 mi West 16.1 mph 25.3 mph N/A   Overcast
10:13 AM 18.0 °F 1.7 °F 10.9 °F 74% 29.43 in 10.0 mi WNW 19.6 mph 26.5 mph N/A   Overcast
10:32 AM 18.1 °F 3.9 °F 11.1 °F 74% 29.43 in 7.0 mi WNW 15.0 mph 21.9 mph N/A   Overcast
10:53 AM 18.1 °F 2.0 °F 11.3 °F 75% 29.45 in 3.0 mi WNW 19.6 mph - N/A   Haze
11:13 AM 18.1 °F 1.6 °F 10.9 °F 73% 29.45 in 3.0 mi WNW 20.7 mph 25.3 mph N/A   Haze
11:32 AM 18.3 °F 3.1 °F 10.4 °F 71% 29.45 in 5.0 mi West 17.3 mph - N/A   Haze
11:53 AM 18.1 °F 1.2 °F 9.7 °F 70% 29.46 in 3.0 mi WNW 21.9 mph 28.8 mph N/A   Haze
12:13 PM 18.3 °F 1.8 °F 9.9 °F 70% 29.45 in 5.0 mi WNW 20.7 mph 26.5 mph N/A   Haze
12:33 PM 17.8 °F 0.7 °F 8.8 °F 68% 29.47 in 2.0 mi WNW 21.9 mph 33.4 mph N/A   Haze
12:53 PM 17.2 °F -0.8 °F 6.6 °F 63% 29.48 in 1.8 mi WNW 24.2 mph 36.8 mph N/A   Haze
1:13 PM 16.0 °F -5.0 °F 5.2 °F 62% 29.50 in 0.8 mi WNW 33.4 mph 42.6 mph N/A Snow Light Snow
1:33 PM 15.6 °F -3.3 °F 4.6 °F 62% 29.51 in 1.2 mi WNW 25.3 mph 34.5 mph N/A   Haze
1:53 PM 14.4 °F -3.8 °F 2.3 °F 59% 29.53 in 1.5 mi WNW 21.9 mph 34.5 mph N/A   Haze
2:13 PM 13.6 °F -5.2 °F 2.8 °F 62% 29.55 in 1.0 mi West 23.0 mph 34.5 mph N/A   Haze
2:33 PM 12.4 °F -8.7 °F 0.9 °F 60% 29.57 in 2.5 mi West 28.8 mph 36.8 mph N/A   Haze
2:53 PM 10.2 °F -11.3 °F -0.4 °F 62% 29.59 in 1.0 mi WNW 27.6 mph 38.0 mph N/A Snow Light Snow
3:13 PM 8.4 °F -14.7 °F -2.7 °F 61% 29.62 in 0.8 mi WNW 31.1 mph 40.3 mph N/A Snow Light Snow
3:33 PM 9.0 °F -13.3 °F -1.1 °F 64% 29.64 in 1.5 mi WNW 28.8 mph 38.0 mph N/A   Haze
3:53 PM 5.5 °F -18.6 °F -2.2 °F 70% 29.66 in 0.5 mi WNW 31.1 mph 41.4 mph N/A Snow Light Snow
4:13 PM 3.7 °F -22.4 °F -4.9 °F 67% 29.69 in 0.5 mi WNW 35.7 mph 43.7 mph N/A Snow Light Snow
4:33 PM 2.8 °F -23.0 °F -4.9 °F 70% 29.72 in 0.5 mi WNW 33.4 mph 42.6 mph N/A Snow Light Snow
4:53 PM 2.3 °F -23.1 °F -5.8 °F 69% 29.74 in 0.8 mi WNW 31.1 mph 40.3 mph N/A Snow Light Snow
5:13 PM 1.8 °F -24.2 °F -6.5 °F 68% 29.77 in 0.8 mi WNW 32.2 mph 40.3 mph N/A Snow Light Snow
5:33 PM 0.5 °F -25.1 °F -8.3 °F 66% 29.79 in 1.0 mi WNW 29.9 mph 39.1 mph N/A Snow Light Snow
5:52 PM 0.5 °F -27.2 °F -7.8 °F 68% 29.81 in 1.8 mi WNW 36.8 mph 42.6 mph N/A Snow Light Snow
6:13 PM 0.5 °F -26.6 °F -8.1 °F 67% 29.83 in 1.2 mi WNW 34.5 mph 44.9 mph N/A Snow Light Snow
6:33 PM 0.1 °F -26.0 °F -8.0 °F 69% 29.86 in 1.8 mi NW 31.1 mph 40.3 mph N/A Snow Light Snow
6:53 PM -0.4 °F -24.3 °F -10.1 °F 64% 29.89 in 2.0 mi NW 24.2 mph 42.6 mph N/A Snow Light Snow
7:13 PM -0.4 °F -25.2 °F -8.1 °F 70% 29.91 in 2.5 mi WNW 26.5 mph 33.4 mph N/A   Haze
7:32 PM -1.3 °F -24.5 °F -10.3 °F 66% 29.93 in 3.0 mi WNW 21.9 mph 34.5 mph N/A   Haze
7:53 PM -1.3 °F -26.4 °F -9.8 °F 67% 29.95 in 3.0 mi WNW 26.5 mph 33.4 mph N/A   Haze
8:12 PM -2.2 °F -27.1 °F -10.8 °F 67% 29.97 in 2.5 mi NW 25.3 mph 38.0 mph N/A   Haze
8:33 PM -2.2 °F -26.2 °F -11.2 °F 66% 29.98 in 4.0 mi WNW 23.0 mph 31.1 mph N/A   Haze
8:53 PM -2.7 °F -26.4 °F -11.7 °F 65% 30.00 in 5.0 mi WNW 21.9 mph 35.7 mph N/A   Haze
9:13 PM -3.1 °F -27.9 °F -12.6 °F 64% 30.02 in 4.0 mi WNW 24.2 mph 33.4 mph N/A   Haze
9:33 PM -3.8 °F -26.2 °F -13.4 °F 64% 30.04 in 5.0 mi WNW 18.4 mph 31.1 mph N/A   Haze
9:53 PM -4.7 °F -29.1 °F -14.8 °F 62% 30.04 in 5.0 mi WNW 21.9 mph 31.1 mph N/A   Haze
10:13 PM -5.3 °F -28.7 °F -15.7 °F 61% 30.06 in 7.0 mi WNW 19.6 mph 29.9 mph N/A   Clear
10:33 PM -5.8 °F -29.9 °F -16.4 °F 60% 30.07 in 7.0 mi WNW 20.7 mph 29.9 mph N/A   Scattered Clouds
10:53 PM -6.2 °F -30.4 °F -17.0 °F 60% 30.08 in 7.0 mi WNW 20.7 mph 29.9 mph N/A   Scattered Clouds
11:13 PM -6.5 °F -31.4 °F -17.5 °F 59% 30.09 in 4.0 mi WNW 21.9 mph 35.7 mph N/A   Haze
11:33 PM -6.7 °F -33.2 °F -17.0 °F 61% 30.11 in 7.0 mi WNW 25.3 mph 32.2 mph N/A   Mostly Cloudy
11:52 PM -7.6 °F -31.1 °F -18.2 °F 60% 30.12 in 3.0 mi WNW 18.4 mph 34.5 mph N/A   Haze